Year,Month,Day,Hour,Minute,Value (Times are PST for temperature in C)
2008,06,19,00,00,6.20
2008,06,19,00,01,6.20
2008,06,19,00,02,6.20
2008,06,19,00,03,6.20
2008,06,19,00,04,6.20
2008,06,19,00,05,6.20
2008,06,19,00,06,6.10
2008,06,19,00,07,6.10
2008,06,19,00,08,6.10
2008,06,19,00,09,6.10
2008,06,19,00,10,6.10
2008,06,19,00,11,6.10
2008,06,19,00,12,6.10
2008,06,19,00,13,6.00
2008,06,19,00,14,6.00
2008,06,19,00,15,6.00
2008,06,19,00,16,6.00
2008,06,19,00,17,5.90
2008,06,19,00,18,5.90
2008,06,19,00,19,5.90
2008,06,19,00,20,5.90
2008,06,19,00,21,5.90
2008,06,19,00,22,5.80
2008,06,19,00,23,5.80
2008,06,19,00,24,5.80
2008,06,19,00,25,5.80
2008,06,19,00,26,5.80
2008,06,19,00,27,5.70
2008,06,19,00,28,5.70
2008,06,19,00,29,5.70
2008,06,19,00,30,5.70
2008,06,19,00,31,5.70
2008,06,19,00,32,5.70
2008,06,19,00,33,5.70
2008,06,19,00,34,5.70
2008,06,19,00,35,5.70
2008,06,19,00,36,5.60
2008,06,19,00,37,5.60
2008,06,19,00,38,5.60
2008,06,19,00,39,5.60
2008,06,19,00,40,5.60
2008,06,19,00,41,5.60
2008,06,19,00,42,5.60
2008,06,19,00,43,5.60
2008,06,19,00,44,5.50
2008,06,19,00,45,5.50
2008,06,19,00,46,5.50
2008,06,19,00,47,5.50
2008,06,19,00,48,5.40
2008,06,19,00,49,5.40
2008,06,19,00,50,5.40
2008,06,19,00,51,5.40
2008,06,19,00,52,5.40
2008,06,19,00,53,5.30
2008,06,19,00,54,5.30
2008,06,19,00,55,5.30
2008,06,19,00,56,5.30
2008,06,19,00,57,5.30
2008,06,19,00,58,5.30
2008,06,19,00,59,5.30
2008,06,19,01,00,5.30
2008,06,19,01,01,5.30
2008,06,19,01,02,5.20
2008,06,19,01,03,5.20
2008,06,19,01,04,5.20
2008,06,19,01,05,5.20
2008,06,19,01,06,5.20
2008,06,19,01,07,5.30
2008,06,19,01,08,5.30
2008,06,19,01,09,5.30
2008,06,19,01,10,5.30
2008,06,19,01,11,5.30
2008,06,19,01,12,5.30
2008,06,19,01,13,5.30
2008,06,19,01,14,5.30
2008,06,19,01,15,5.30
2008,06,19,01,16,5.30
2008,06,19,01,17,5.30
2008,06,19,01,18,5.40
2008,06,19,01,19,5.40
2008,06,19,01,20,5.40
2008,06,19,01,21,5.40
2008,06,19,01,22,5.40
2008,06,19,01,23,5.40
2008,06,19,01,24,5.40
2008,06,19,01,25,5.40
2008,06,19,01,26,5.40
2008,06,19,01,27,5.40
2008,06,19,01,28,5.40
2008,06,19,01,29,5.40
2008,06,19,01,30,5.50
2008,06,19,01,31,5.50
2008,06,19,01,32,5.50
2008,06,19,01,33,5.50
2008,06,19,01,34,5.50
2008,06,19,01,35,5.50
2008,06,19,01,36,5.60
2008,06,19,01,37,5.60
2008,06,19,01,38,5.60
2008,06,19,01,39,5.60
2008,06,19,01,40,5.60
2008,06,19,01,41,5.60
2008,06,19,01,42,5.60
2008,06,19,01,43,5.60
2008,06,19,01,44,5.60
2008,06,19,01,45,5.60
2008,06,19,01,46,5.60
2008,06,19,01,47,5.60
2008,06,19,01,48,5.60
2008,06,19,01,49,5.60
2008,06,19,01,50,5.60
2008,06,19,01,51,5.60
2008,06,19,01,52,5.60
2008,06,19,01,53,5.60
2008,06,19,01,54,5.60
2008,06,19,01,55,5.60
2008,06,19,01,56,5.60
2008,06,19,01,57,5.60
2008,06,19,01,58,5.60
2008,06,19,01,59,5.60
2008,06,19,02,00,5.60
2008,06,19,02,01,5.60
2008,06,19,02,02,5.60
2008,06,19,02,03,5.50
2008,06,19,02,04,5.50
2008,06,19,02,05,5.50
2008,06,19,02,06,5.50
2008,06,19,02,07,5.50
2008,06,19,02,08,5.50
2008,06,19,02,09,5.50
2008,06,19,02,10,5.60
2008,06,19,02,11,5.60
2008,06,19,02,12,5.60
2008,06,19,02,13,5.60
2008,06,19,02,14,5.60
2008,06,19,02,15,5.60
2008,06,19,02,16,5.60
2008,06,19,02,17,5.60
2008,06,19,02,18,5.60
2008,06,19,02,19,5.60
2008,06,19,02,20,5.60
2008,06,19,02,21,5.60
2008,06,19,02,22,5.60
2008,06,19,02,23,5.60
2008,06,19,02,24,5.60
2008,06,19,02,25,5.60
2008,06,19,02,26,5.60
2008,06,19,02,27,5.60
2008,06,19,02,28,5.60
2008,06,19,02,29,5.60
2008,06,19,02,30,5.60
2008,06,19,02,31,5.70
2008,06,19,02,32,5.70
2008,06,19,02,33,5.70
2008,06,19,02,34,5.70
2008,06,19,02,35,5.70
2008,06,19,02,36,5.70
2008,06,19,02,37,5.70
2008,06,19,02,38,5.70
2008,06,19,02,39,5.80
2008,06,19,02,40,5.80
2008,06,19,02,41,5.80
2008,06,19,02,42,5.80
2008,06,19,02,43,5.80
2008,06,19,02,44,5.80
2008,06,19,02,45,5.80
2008,06,19,02,46,5.80
2008,06,19,02,47,5.80
2008,06,19,02,48,5.80
2008,06,19,02,49,5.80
2008,06,19,02,50,5.80
2008,06,19,02,51,5.80
2008,06,19,02,52,5.90
2008,06,19,02,53,5.90
2008,06,19,02,54,5.90
2008,06,19,02,55,5.90
2008,06,19,02,56,5.90
2008,06,19,02,57,5.80
2008,06,19,02,58,5.90
2008,06,19,02,59,5.90
2008,06,19,03,00,5.80
2008,06,19,03,01,5.80
2008,06,19,03,02,5.80
2008,06,19,03,03,5.80
2008,06,19,03,04,5.80
2008,06,19,03,05,5.80
2008,06,19,03,06,5.80
2008,06,19,03,07,5.80
2008,06,19,03,08,5.80
2008,06,19,03,09,5.80
2008,06,19,03,10,5.80
2008,06,19,03,11,5.80
2008,06,19,03,12,5.80
2008,06,19,03,13,5.80
2008,06,19,03,14,5.80
2008,06,19,03,15,5.80
2008,06,19,03,16,5.80
2008,06,19,03,17,5.80
2008,06,19,03,18,5.90
2008,06,19,03,19,5.90
2008,06,19,03,20,5.90
2008,06,19,03,21,5.90
2008,06,19,03,22,5.90
2008,06,19,03,23,5.90
2008,06,19,03,24,5.90
2008,06,19,03,25,5.90
2008,06,19,03,26,5.90
2008,06,19,03,27,5.90
2008,06,19,03,28,5.90
2008,06,19,03,29,6.00
2008,06,19,03,30,6.00
2008,06,19,03,31,6.00
2008,06,19,03,32,6.00
2008,06,19,03,33,6.10
2008,06,19,03,34,6.10
2008,06,19,03,35,6.10
2008,06,19,03,36,6.10
2008,06,19,03,37,6.10
2008,06,19,03,38,6.10
2008,06,19,03,39,6.10
2008,06,19,03,40,6.20
2008,06,19,03,41,6.20
2008,06,19,03,42,6.20
2008,06,19,03,43,6.20
2008,06,19,03,44,6.20
2008,06,19,03,45,6.20
2008,06,19,03,46,6.20
2008,06,19,03,47,6.20
2008,06,19,03,48,6.30
2008,06,19,03,49,6.30
2008,06,19,03,50,6.30
2008,06,19,03,51,6.30
2008,06,19,03,52,6.30
2008,06,19,03,53,6.30
2008,06,19,03,54,6.40
2008,06,19,03,55,6.40
2008,06,19,03,56,6.40
2008,06,19,03,57,6.40
2008,06,19,03,58,6.40
2008,06,19,03,59,6.40
2008,06,19,04,00,6.50
2008,06,19,04,01,6.50
2008,06,19,04,02,6.50
2008,06,19,04,03,6.60
2008,06,19,04,04,6.60
2008,06,19,04,05,6.60
2008,06,19,04,06,6.60
2008,06,19,04,07,6.60
2008,06,19,04,08,6.70
2008,06,19,04,09,6.70
2008,06,19,04,10,6.70
2008,06,19,04,11,6.70
2008,06,19,04,12,6.70
2008,06,19,04,13,6.70
2008,06,19,04,14,6.70
2008,06,19,04,15,6.70
2008,06,19,04,16,6.70
2008,06,19,04,17,6.70
2008,06,19,04,18,6.80
2008,06,19,04,19,6.80
2008,06,19,04,20,6.80
2008,06,19,04,21,6.80
2008,06,19,04,22,6.80
2008,06,19,04,23,6.80
2008,06,19,04,24,6.80
2008,06,19,04,25,6.80
2008,06,19,04,26,6.80
2008,06,19,04,27,6.80
2008,06,19,04,28,6.80
2008,06,19,04,29,6.80
2008,06,19,04,30,6.80
2008,06,19,04,31,6.90
2008,06,19,04,32,6.90
2008,06,19,04,33,6.90
2008,06,19,04,34,6.90
2008,06,19,04,35,6.90
2008,06,19,04,36,6.90
2008,06,19,04,37,6.90
2008,06,19,04,38,6.90
2008,06,19,04,39,6.90
2008,06,19,04,40,7.00
2008,06,19,04,41,7.00
2008,06,19,04,42,7.00
2008,06,19,04,43,7.00
2008,06,19,04,44,7.00
2008,06,19,04,45,7.00
2008,06,19,04,46,7.00
2008,06,19,04,47,7.10
2008,06,19,04,48,7.10
2008,06,19,04,49,7.10
2008,06,19,04,50,7.10
2008,06,19,04,51,7.10
2008,06,19,04,52,7.10
2008,06,19,04,53,7.10
2008,06,19,04,54,7.10
2008,06,19,04,55,7.10
2008,06,19,04,56,7.10
2008,06,19,04,57,7.10
2008,06,19,04,58,7.10
2008,06,19,04,59,7.10
2008,06,19,05,00,7.10
2008,06,19,05,01,7.10
2008,06,19,05,02,7.10
2008,06,19,05,03,7.10
2008,06,19,05,04,7.10
2008,06,19,05,05,7.10
2008,06,19,05,06,7.10
2008,06,19,05,07,7.10
2008,06,19,05,08,7.10
2008,06,19,05,09,7.10
2008,06,19,05,10,7.10
2008,06,19,05,11,7.10
2008,06,19,05,12,7.20
2008,06,19,05,13,7.20
2008,06,19,05,14,7.20
2008,06,19,05,15,7.20
2008,06,19,05,16,7.20
2008,06,19,05,17,7.20
2008,06,19,05,18,7.20
2008,06,19,05,19,7.20
2008,06,19,05,20,7.20
2008,06,19,05,21,7.20
2008,06,19,05,22,7.20
2008,06,19,05,23,7.20
2008,06,19,05,24,7.20
2008,06,19,05,25,7.20
2008,06,19,05,26,7.20
2008,06,19,05,27,7.20
2008,06,19,05,28,7.20
2008,06,19,05,29,7.20
2008,06,19,05,30,7.20
2008,06,19,05,31,7.30
2008,06,19,05,32,7.30
2008,06,19,05,33,7.30
2008,06,19,05,34,7.30
2008,06,19,05,35,7.30
2008,06,19,05,36,7.30
2008,06,19,05,37,7.30
2008,06,19,05,38,7.30
2008,06,19,05,39,7.30
2008,06,19,05,40,7.30
2008,06,19,05,41,7.30
2008,06,19,05,42,7.30
2008,06,19,05,43,7.30
2008,06,19,05,44,7.30
2008,06,19,05,45,7.40
2008,06,19,05,46,7.40
2008,06,19,05,47,7.40
2008,06,19,05,48,7.40
2008,06,19,05,49,7.40
2008,06,19,05,50,7.40
2008,06,19,05,51,7.40
2008,06,19,05,52,7.40
2008,06,19,05,53,7.40
2008,06,19,05,54,7.40
2008,06,19,05,55,7.40
2008,06,19,05,56,7.40
2008,06,19,05,57,7.40
2008,06,19,05,58,7.40
2008,06,19,05,59,7.40
2008,06,19,06,00,7.40
2008,06,19,06,01,7.50
2008,06,19,06,02,7.50
2008,06,19,06,03,7.50
2008,06,19,06,04,7.50
2008,06,19,06,05,7.50
2008,06,19,06,06,7.50
2008,06,19,06,07,7.50
2008,06,19,06,08,7.50
2008,06,19,06,09,7.50
2008,06,19,06,10,7.60
2008,06,19,06,11,7.60
2008,06,19,06,12,7.60
2008,06,19,06,13,7.60
2008,06,19,06,14,7.60
2008,06,19,06,15,7.60
2008,06,19,06,16,7.60
2008,06,19,06,17,7.60
2008,06,19,06,18,7.60
2008,06,19,06,19,7.60
2008,06,19,06,20,7.60
2008,06,19,06,21,7.70
2008,06,19,06,22,7.70
2008,06,19,06,23,7.70
2008,06,19,06,24,7.70
2008,06,19,06,25,7.70
2008,06,19,06,26,7.70
2008,06,19,06,27,7.70
2008,06,19,06,28,7.70
2008,06,19,06,29,7.70
2008,06,19,06,30,7.70
2008,06,19,06,31,7.70
2008,06,19,06,32,7.70
2008,06,19,06,33,7.80
2008,06,19,06,34,7.80
2008,06,19,06,35,7.80
2008,06,19,06,36,7.80
2008,06,19,06,37,7.80
2008,06,19,06,38,7.80
2008,06,19,06,39,7.80
2008,06,19,06,40,7.80
2008,06,19,06,41,7.80
2008,06,19,06,42,7.90
2008,06,19,06,43,7.90
2008,06,19,06,44,7.90
2008,06,19,06,45,7.90
2008,06,19,06,46,7.90
2008,06,19,06,47,7.90
2008,06,19,06,48,8.00
2008,06,19,06,49,8.00
2008,06,19,06,50,8.00
2008,06,19,06,51,8.00
2008,06,19,06,52,8.10
2008,06,19,06,53,8.10
2008,06,19,06,54,8.10
2008,06,19,06,55,8.10
2008,06,19,06,56,8.20
2008,06,19,06,57,8.20
2008,06,19,06,58,8.20
2008,06,19,06,59,8.20
2008,06,19,07,00,8.30
2008,06,19,07,01,8.30
2008,06,19,07,02,8.30
2008,06,19,07,03,8.30
2008,06,19,07,04,8.30
2008,06,19,07,05,8.40
2008,06,19,07,06,8.40
2008,06,19,07,07,8.40
2008,06,19,07,08,8.50
2008,06,19,07,09,8.50
2008,06,19,07,10,8.60
2008,06,19,07,11,8.60
2008,06,19,07,12,8.60
2008,06,19,07,13,8.70
2008,06,19,07,14,8.70
2008,06,19,07,15,8.70
2008,06,19,07,16,8.70
2008,06,19,07,17,8.70
2008,06,19,07,18,8.70
2008,06,19,07,19,8.80
2008,06,19,07,20,8.80
2008,06,19,07,21,8.80
2008,06,19,07,22,8.80
2008,06,19,07,23,8.80
2008,06,19,07,24,8.90
2008,06,19,07,25,8.90
2008,06,19,07,26,8.90
2008,06,19,07,27,9.00
2008,06,19,07,28,9.00
2008,06,19,07,29,9.00
2008,06,19,07,30,9.00
2008,06,19,07,31,9.10
2008,06,19,07,32,9.10
2008,06,19,07,33,9.10
2008,06,19,07,34,9.10
2008,06,19,07,35,9.20
2008,06,19,07,36,9.20
2008,06,19,07,37,9.20
2008,06,19,07,38,9.20
2008,06,19,07,39,9.20
2008,06,19,07,40,9.30
2008,06,19,07,41,9.30
2008,06,19,07,42,9.30
2008,06,19,07,43,9.30
2008,06,19,07,44,9.30
2008,06,19,07,45,9.40
2008,06,19,07,46,9.40
2008,06,19,07,47,9.40
2008,06,19,07,48,9.40
2008,06,19,07,49,9.50
2008,06,19,07,50,9.50
2008,06,19,07,51,9.60
2008,06,19,07,52,9.60
2008,06,19,07,53,9.60
2008,06,19,07,54,9.70
2008,06,19,07,55,9.70
2008,06,19,07,56,9.70
2008,06,19,07,57,9.80
2008,06,19,07,58,9.80
2008,06,19,07,59,9.90
2008,06,19,08,00,9.90
2008,06,19,08,01,9.90
2008,06,19,08,02,10.00
2008,06,19,08,03,10.00
2008,06,19,08,04,10.00
2008,06,19,08,05,10.10
2008,06,19,08,06,10.10
2008,06,19,08,07,10.10
2008,06,19,08,08,10.10
2008,06,19,08,09,10.10
2008,06,19,08,10,10.20
2008,06,19,08,11,10.20
2008,06,19,08,12,10.20
2008,06,19,08,13,10.20
2008,06,19,08,14,10.20
2008,06,19,08,15,10.20
2008,06,19,08,16,10.20
2008,06,19,08,17,10.20
2008,06,19,08,18,10.20
2008,06,19,08,19,10.20
2008,06,19,08,20,10.20
2008,06,19,08,21,10.20
2008,06,19,08,22,10.20
2008,06,19,08,23,10.30
2008,06,19,08,24,10.30
2008,06,19,08,25,10.30
2008,06,19,08,26,10.30
2008,06,19,08,27,10.30
2008,06,19,08,28,10.30
2008,06,19,08,29,10.30
2008,06,19,08,30,10.30
2008,06,19,08,31,10.30
2008,06,19,08,32,10.30
2008,06,19,08,33,10.40
2008,06,19,08,34,10.40
2008,06,19,08,35,10.40
2008,06,19,08,36,10.40
2008,06,19,08,37,10.40
2008,06,19,08,38,10.50
2008,06,19,08,39,10.50
2008,06,19,08,40,10.50
2008,06,19,08,41,10.50
2008,06,19,08,42,10.60
2008,06,19,08,43,10.60
2008,06,19,08,44,10.60
2008,06,19,08,45,10.60
2008,06,19,08,46,10.60
2008,06,19,08,47,10.70
2008,06,19,08,48,10.70
2008,06,19,08,49,10.70
2008,06,19,08,50,10.70
2008,06,19,08,51,10.70
2008,06,19,08,52,10.80
2008,06,19,08,53,10.80
2008,06,19,08,54,10.80
2008,06,19,08,55,10.80
2008,06,19,08,56,10.80
2008,06,19,08,57,10.80
2008,06,19,08,58,10.80
2008,06,19,08,59,10.70
2008,06,19,09,00,10.70
2008,06,19,09,01,10.70
2008,06,19,09,02,10.70
2008,06,19,09,03,10.70
2008,06,19,09,04,10.70
2008,06,19,09,05,10.70
2008,06,19,09,06,10.70
2008,06,19,09,07,10.70
2008,06,19,09,08,10.70
2008,06,19,09,09,10.70
2008,06,19,09,10,10.70
2008,06,19,09,11,10.60
2008,06,19,09,12,10.60
2008,06,19,09,13,10.60
2008,06,19,09,14,10.60
2008,06,19,09,15,10.60
2008,06,19,09,16,10.60
2008,06,19,09,17,10.70
2008,06,19,09,18,10.70
2008,06,19,09,19,10.70
2008,06,19,09,20,10.70
2008,06,19,09,21,10.70
2008,06,19,09,22,10.60
2008,06,19,09,23,10.60
2008,06,19,09,24,10.60
2008,06,19,09,25,10.60
2008,06,19,09,26,10.60
2008,06,19,09,27,10.50
2008,06,19,09,28,10.50
2008,06,19,09,29,10.50
2008,06,19,09,30,10.50
2008,06,19,09,31,10.50
2008,06,19,09,32,10.50
2008,06,19,09,33,10.50
2008,06,19,09,34,10.60
2008,06,19,09,35,10.60
2008,06,19,09,36,10.70
2008,06,19,09,37,10.70
2008,06,19,09,38,10.70
2008,06,19,09,39,10.80
2008,06,19,09,40,10.80
2008,06,19,09,41,10.80
2008,06,19,09,42,10.80
2008,06,19,09,43,10.90
2008,06,19,09,44,10.90
2008,06,19,09,45,11.00
2008,06,19,09,46,11.00
2008,06,19,09,47,11.10
2008,06,19,09,48,11.10
2008,06,19,09,49,11.10
2008,06,19,09,50,11.20
2008,06,19,09,51,11.20
2008,06,19,09,52,11.30
2008,06,19,09,53,11.30
2008,06,19,09,54,11.30
2008,06,19,09,55,11.30
2008,06,19,09,56,11.40
2008,06,19,09,57,11.40
2008,06,19,09,58,11.30
2008,06,19,09,59,11.30
2008,06,19,10,00,11.30
2008,06,19,10,01,11.20
2008,06,19,10,02,11.10
2008,06,19,10,03,11.10
2008,06,19,10,04,10.90
2008,06,19,10,05,10.80
2008,06,19,10,06,10.70
2008,06,19,10,07,10.70
2008,06,19,10,08,10.70
2008,06,19,10,09,10.70
2008,06,19,10,10,10.70
2008,06,19,10,11,10.70
2008,06,19,10,12,10.70
2008,06,19,10,13,10.70
2008,06,19,10,14,10.70
2008,06,19,10,15,10.80
2008,06,19,10,16,10.80
2008,06,19,10,17,10.90
2008,06,19,10,18,10.90
2008,06,19,10,19,11.00
2008,06,19,10,20,11.00
2008,06,19,10,21,11.00
2008,06,19,10,22,11.10
2008,06,19,10,23,11.10
2008,06,19,10,24,11.20
2008,06,19,10,25,11.20
2008,06,19,10,26,11.20
2008,06,19,10,27,11.30
2008,06,19,10,28,11.40
2008,06,19,10,29,11.40
2008,06,19,10,30,11.50
2008,06,19,10,31,11.60
2008,06,19,10,32,11.60
2008,06,19,10,33,11.70
2008,06,19,10,34,11.70
2008,06,19,10,35,11.70
2008,06,19,10,36,11.70
2008,06,19,10,37,11.60
2008,06,19,10,38,11.60
2008,06,19,10,39,11.70
2008,06,19,10,40,11.70
2008,06,19,10,41,11.70
2008,06,19,10,42,11.70
2008,06,19,10,43,11.80
2008,06,19,10,44,11.80
2008,06,19,10,45,11.90
2008,06,19,10,46,11.90
2008,06,19,10,47,11.90
2008,06,19,10,48,12.00
2008,06,19,10,49,12.00
2008,06,19,10,50,12.00
2008,06,19,10,51,12.10
2008,06,19,10,52,12.10
2008,06,19,10,53,12.20
2008,06,19,10,54,12.20
2008,06,19,10,55,12.30
2008,06,19,10,56,12.40
2008,06,19,10,57,12.40
2008,06,19,10,58,12.40
2008,06,19,10,59,12.30
2008,06,19,11,00,12.30
2008,06,19,11,01,12.20
2008,06,19,11,02,12.20
2008,06,19,11,03,12.20
2008,06,19,11,04,12.20
2008,06,19,11,05,12.20
2008,06,19,11,06,12.10
2008,06,19,11,07,12.10
2008,06,19,11,08,11.90
2008,06,19,11,09,11.80
2008,06,19,11,10,11.80
2008,06,19,11,11,11.80
2008,06,19,11,12,11.80
2008,06,19,11,13,11.90
2008,06,19,11,14,11.90
2008,06,19,11,15,11.90
2008,06,19,11,16,11.90
2008,06,19,11,17,12.00
2008,06,19,11,18,12.00
2008,06,19,11,19,12.10
2008,06,19,11,20,12.10
2008,06,19,11,21,12.10
2008,06,19,11,22,12.10
2008,06,19,11,23,12.10
2008,06,19,11,24,12.20
2008,06,19,11,25,12.20
2008,06,19,11,26,12.20
2008,06,19,11,27,12.30
2008,06,19,11,28,12.30
2008,06,19,11,29,12.30
2008,06,19,11,30,12.30
2008,06,19,11,31,12.30
2008,06,19,11,32,12.40
2008,06,19,11,33,12.40
2008,06,19,11,34,12.30
2008,06,19,11,35,12.30
2008,06,19,11,36,12.30
2008,06,19,11,37,12.30
2008,06,19,11,38,12.30
2008,06,19,11,39,12.20
2008,06,19,11,40,12.10
2008,06,19,11,41,12.00
2008,06,19,11,42,12.00
2008,06,19,11,43,12.00
2008,06,19,11,44,12.00
2008,06,19,11,45,12.10
2008,06,19,11,46,12.10
2008,06,19,11,47,12.20
2008,06,19,11,48,12.30
2008,06,19,11,49,12.30
2008,06,19,11,50,12.30
2008,06,19,11,51,12.30
2008,06,19,11,52,12.40
2008,06,19,11,53,12.40
2008,06,19,11,54,12.40
2008,06,19,11,55,12.40
2008,06,19,11,56,12.30
2008,06,19,11,57,12.30
2008,06,19,11,58,12.30
2008,06,19,11,59,12.30
2008,06,19,12,00,12.30
2008,06,19,12,01,12.30
2008,06,19,12,02,12.40
2008,06,19,12,03,12.40
2008,06,19,12,04,12.40
2008,06,19,12,05,12.40
2008,06,19,12,06,12.50
2008,06,19,12,07,12.50
2008,06,19,12,08,12.50
2008,06,19,12,09,12.60
2008,06,19,12,10,12.60
2008,06,19,12,11,12.60
2008,06,19,12,12,12.50
2008,06,19,12,13,12.40
2008,06,19,12,14,12.40
2008,06,19,12,15,12.30
2008,06,19,12,16,12.30
2008,06,19,12,17,12.20
2008,06,19,12,18,12.20
2008,06,19,12,19,12.20
2008,06,19,12,20,12.10
2008,06,19,12,21,12.10
2008,06,19,12,22,12.10
2008,06,19,12,23,12.10
2008,06,19,12,24,12.20
2008,06,19,12,25,12.20
2008,06,19,12,26,12.30
2008,06,19,12,27,12.30
2008,06,19,12,28,12.30
2008,06,19,12,29,12.30
2008,06,19,12,30,12.30
2008,06,19,12,31,12.30
2008,06,19,12,32,12.30
2008,06,19,12,33,12.30
2008,06,19,12,34,12.40
2008,06,19,12,35,12.50
2008,06,19,12,36,12.60
2008,06,19,12,37,12.60
2008,06,19,12,38,12.70
2008,06,19,12,39,12.70
2008,06,19,12,40,12.70
2008,06,19,12,41,12.70
2008,06,19,12,42,12.80
2008,06,19,12,43,12.80
2008,06,19,12,44,12.80
2008,06,19,12,45,12.80
2008,06,19,12,46,12.80
2008,06,19,12,47,12.80
2008,06,19,12,48,12.80
2008,06,19,12,49,12.70
2008,06,19,12,50,12.70
2008,06,19,12,51,12.70
2008,06,19,12,52,12.80
2008,06,19,12,53,12.80
2008,06,19,12,54,12.90
2008,06,19,12,55,13.00
2008,06,19,12,56,13.10
2008,06,19,12,57,13.20
2008,06,19,12,58,13.30
2008,06,19,12,59,13.30
2008,06,19,13,00,13.30
2008,06,19,13,01,13.30
2008,06,19,13,02,13.40
2008,06,19,13,03,13.40
2008,06,19,13,04,13.50
2008,06,19,13,05,13.50
2008,06,19,13,06,13.50
2008,06,19,13,07,13.60
2008,06,19,13,08,13.60
2008,06,19,13,09,13.60
2008,06,19,13,10,13.70
2008,06,19,13,11,13.80
2008,06,19,13,12,13.80
2008,06,19,13,13,13.90
2008,06,19,13,14,14.00
2008,06,19,13,15,14.10
2008,06,19,13,16,14.00
2008,06,19,13,17,14.00
2008,06,19,13,18,14.00
2008,06,19,13,19,14.00
2008,06,19,13,20,14.00
2008,06,19,13,21,14.10
2008,06,19,13,22,14.10
2008,06,19,13,23,14.00
2008,06,19,13,24,13.90
2008,06,19,13,25,13.80
2008,06,19,13,26,13.80
2008,06,19,13,27,13.90
2008,06,19,13,28,14.00
2008,06,19,13,29,14.10
2008,06,19,13,30,14.20
2008,06,19,13,31,14.40
2008,06,19,13,32,14.50
2008,06,19,13,33,14.50
2008,06,19,13,34,14.60
2008,06,19,13,35,14.60
2008,06,19,13,36,14.70
2008,06,19,13,37,14.80
2008,06,19,13,38,14.90
2008,06,19,13,39,15.00
2008,06,19,13,40,15.00
2008,06,19,13,41,15.00
2008,06,19,13,42,15.00
2008,06,19,13,43,15.00
2008,06,19,13,44,15.20
2008,06,19,13,45,15.30
2008,06,19,13,46,15.30
2008,06,19,13,47,15.20
2008,06,19,13,48,15.10
2008,06,19,13,49,15.10
2008,06,19,13,50,15.10
2008,06,19,13,51,15.10
2008,06,19,13,52,15.00
2008,06,19,13,53,15.00
2008,06,19,13,54,15.10
2008,06,19,13,55,15.00
2008,06,19,13,56,15.00
2008,06,19,13,57,15.00
2008,06,19,13,58,15.00
2008,06,19,13,59,15.00
2008,06,19,14,00,15.00
2008,06,19,14,01,15.00
2008,06,19,14,02,14.90
2008,06,19,14,03,14.80
2008,06,19,14,04,14.80
2008,06,19,14,05,14.80
2008,06,19,14,06,14.80
2008,06,19,14,07,14.90
2008,06,19,14,08,14.90
2008,06,19,14,09,15.00
2008,06,19,14,10,15.00
2008,06,19,14,11,15.00
2008,06,19,14,12,15.00
2008,06,19,14,13,15.00
2008,06,19,14,14,15.00
2008,06,19,14,15,15.00
2008,06,19,14,16,15.10
2008,06,19,14,17,15.20
2008,06,19,14,18,15.30
2008,06,19,14,19,15.40
2008,06,19,14,20,15.40
2008,06,19,14,21,15.50
2008,06,19,14,22,15.50
2008,06,19,14,23,15.60
2008,06,19,14,24,15.60
2008,06,19,14,25,15.60
2008,06,19,14,26,15.70
2008,06,19,14,27,15.70
2008,06,19,14,28,15.80
2008,06,19,14,29,15.80
2008,06,19,14,30,15.70
2008,06,19,14,31,15.60
2008,06,19,14,32,15.60
2008,06,19,14,33,15.60
2008,06,19,14,34,15.50
2008,06,19,14,35,15.50
2008,06,19,14,36,15.40
2008,06,19,14,37,15.50
2008,06,19,14,38,15.50
2008,06,19,14,39,15.50
2008,06,19,14,40,15.50
2008,06,19,14,41,15.50
2008,06,19,14,42,15.60
2008,06,19,14,43,15.60
2008,06,19,14,44,15.60
2008,06,19,14,45,15.50
2008,06,19,14,46,15.40
2008,06,19,14,47,15.40
2008,06,19,14,48,15.50
2008,06,19,14,49,15.60
2008,06,19,14,50,15.80
2008,06,19,14,51,15.90
2008,06,19,14,52,15.90
2008,06,19,14,53,15.90
2008,06,19,14,54,16.00
2008,06,19,14,55,16.10
2008,06,19,14,56,16.20
2008,06,19,14,57,16.30
2008,06,19,14,58,16.30
2008,06,19,14,59,16.30
2008,06,19,15,00,16.30
2008,06,19,15,01,16.30
2008,06,19,15,02,16.30
2008,06,19,15,03,16.30
2008,06,19,15,04,16.40
2008,06,19,15,05,16.50
2008,06,19,15,06,16.60
2008,06,19,15,07,16.70
2008,06,19,15,08,16.80
2008,06,19,15,09,16.90
2008,06,19,15,10,17.00
2008,06,19,15,11,17.10
2008,06,19,15,12,17.10
2008,06,19,15,13,17.00
2008,06,19,15,14,17.00
2008,06,19,15,15,16.90
2008,06,19,15,16,16.80
2008,06,19,15,17,16.80
2008,06,19,15,18,16.80
2008,06,19,15,19,16.90
2008,06,19,15,20,16.90
2008,06,19,15,21,17.00
2008,06,19,15,22,17.10
2008,06,19,15,23,17.20
2008,06,19,15,24,17.30
2008,06,19,15,25,17.30
2008,06,19,15,26,17.30
2008,06,19,15,27,17.30
2008,06,19,15,28,17.20
2008,06,19,15,29,16.90
2008,06,19,15,30,16.80
2008,06,19,15,31,16.70
2008,06,19,15,32,16.50
2008,06,19,15,33,16.40
2008,06,19,15,34,16.40
2008,06,19,15,35,16.30
2008,06,19,15,36,16.30
2008,06,19,15,37,16.30
2008,06,19,15,38,16.20
2008,06,19,15,39,16.20
2008,06,19,15,40,16.30
2008,06,19,15,41,16.20
2008,06,19,15,42,16.20
2008,06,19,15,43,16.10
2008,06,19,15,44,16.00
2008,06,19,15,45,15.90
2008,06,19,15,46,15.80
2008,06,19,15,47,15.80
2008,06,19,15,48,15.70
2008,06,19,15,49,15.60
2008,06,19,15,50,15.50
2008,06,19,15,51,15.50
2008,06,19,15,52,15.40
2008,06,19,15,53,15.40
2008,06,19,15,54,15.40
2008,06,19,15,55,15.50
2008,06,19,15,56,15.50
2008,06,19,15,57,15.50
2008,06,19,15,58,15.60
2008,06,19,15,59,15.70
2008,06,19,16,00,15.70
2008,06,19,16,01,15.80
2008,06,19,16,02,15.90
2008,06,19,16,03,16.00
2008,06,19,16,04,16.00
2008,06,19,16,05,16.10
2008,06,19,16,06,16.20
2008,06,19,16,07,16.20
2008,06,19,16,08,16.30
2008,06,19,16,09,16.40
2008,06,19,16,10,16.40
2008,06,19,16,11,16.40
2008,06,19,16,12,16.40
2008,06,19,16,13,16.30
2008,06,19,16,14,16.30
2008,06,19,16,15,16.30
2008,06,19,16,16,16.30
2008,06,19,16,17,16.20
2008,06,19,16,18,16.20
2008,06,19,16,19,16.20
2008,06,19,16,20,16.10
2008,06,19,16,21,16.00
2008,06,19,16,22,15.90
2008,06,19,16,23,15.80
2008,06,19,16,24,15.70
2008,06,19,16,25,15.70
2008,06,19,16,26,15.60
2008,06,19,16,27,15.50
2008,06,19,16,28,15.40
2008,06,19,16,29,15.40
2008,06,19,16,30,15.40
2008,06,19,16,31,15.40
2008,06,19,16,32,15.40
2008,06,19,16,33,15.40
2008,06,19,16,34,15.50
2008,06,19,16,35,15.50
2008,06,19,16,36,15.60
2008,06,19,16,37,15.60
2008,06,19,16,38,15.60
2008,06,19,16,39,15.70
2008,06,19,16,40,15.70
2008,06,19,16,41,15.70
2008,06,19,16,42,15.80
2008,06,19,16,43,15.80
2008,06,19,16,44,15.80
2008,06,19,16,45,15.80
2008,06,19,16,46,15.90
2008,06,19,16,47,15.90
2008,06,19,16,48,16.00
2008,06,19,16,49,16.00
2008,06,19,16,50,16.00
2008,06,19,16,51,16.10
2008,06,19,16,52,16.10
2008,06,19,16,53,16.10
2008,06,19,16,54,16.10
2008,06,19,16,55,16.10
2008,06,19,16,56,16.10
2008,06,19,16,57,16.20
2008,06,19,16,58,16.30
2008,06,19,16,59,16.30
2008,06,19,17,00,16.30
2008,06,19,17,01,16.30
2008,06,19,17,02,16.40
2008,06,19,17,03,16.40
2008,06,19,17,04,16.40
2008,06,19,17,05,16.40
2008,06,19,17,06,16.40
2008,06,19,17,07,16.50
2008,06,19,17,08,16.50
2008,06,19,17,09,16.50
2008,06,19,17,10,16.60
2008,06,19,17,11,16.60
2008,06,19,17,12,16.70
2008,06,19,17,13,16.70
2008,06,19,17,14,16.70
2008,06,19,17,15,16.80
2008,06,19,17,16,16.80
2008,06,19,17,17,16.70
2008,06,19,17,18,16.70
2008,06,19,17,19,16.70
2008,06,19,17,20,16.70
2008,06,19,17,21,16.70
2008,06,19,17,22,16.60
2008,06,19,17,23,16.60
2008,06,19,17,24,16.60
2008,06,19,17,25,16.60
2008,06,19,17,26,16.60
2008,06,19,17,27,16.70
2008,06,19,17,28,16.70
2008,06,19,17,29,16.80
2008,06,19,17,30,16.80
2008,06,19,17,31,16.80
2008,06,19,17,32,16.90
2008,06,19,17,33,17.00
2008,06,19,17,34,17.00
2008,06,19,17,35,17.10
2008,06,19,17,36,17.10
2008,06,19,17,37,17.10
2008,06,19,17,38,17.10
2008,06,19,17,39,17.00
2008,06,19,17,40,17.00